GW2924 Weather Reports


time (UTC)temp
C
wind
direction
speed
KPH
gust
KPH
rain 1hr
cm
rain 24hr
cm
rain mn
cm
humidity
%
barometer
mb
20260502224056 17 302 9.7 19.3 0.00 0.00 0.00 34 1012.9
20260502223556 17 252 9.7 20.9 0.00 0.00 0.00 35 1012.9
20260502223054 17 230 11.3 20.9 0.00 0.00 0.00 35 1013.0
20260502222556 17 237 9.7 20.9 0.00 0.00 0.00 32 1013.1
20260502222055 17 271 9.7 17.7 0.00 0.00 0.00 32 1013.0
20260502221557 17 316 9.7 17.7 0.00 0.00 0.00 35 1013.2
20260502221056 17 319 4.8 16.1 0.00 0.00 0.00 34 1013.2
20260502220556 17 295 6.4 14.5 0.00 0.00 0.00 35 1013.4
20260502220058 17 225 6.4 17.7 0.00 0.00 0.00 31 1013.3
20260502215556 17 231 9.7 19.3 0.00 0.00 0.00 34 1013.5
20260502215055 17 221 8.0 19.3 0.00 0.00 0.00 33 1013.6
20260502214559 17 224 4.8 12.9 0.00 0.00 0.00 33 1013.6
20260502214055 17 178 6.4 12.9 0.00 0.00 0.00 34 1013.6
20260502213557 17 314 6.4 16.1 0.00 0.00 0.00 36 1013.7
20260502213056 17 243 8.0 16.1 0.00 0.00 0.00 35 1013.8
20260502212556 17 250 3.2 16.1 0.00 0.00 0.00 35 1013.8
20260502212056 17 307 4.8 16.1 0.00 0.00 0.00 34 1013.9
20260502211557 17 242 4.8 16.1 0.00 0.00 0.00 34 1013.9
20260502211056 17 300 6.4 19.3 0.00 0.00 0.00 33 1014.0
20260502210556 16 231 6.4 19.3 0.00 0.00 0.00 36 1014.0
20260502210106 16 221 6.4 14.5 0.00 0.00 0.00 34 1014.2
20260502205556 16 294 6.4 19.3 0.00 0.00 0.00 37 1014.3
20260502205056 16 233 8.0 19.3 0.00 0.00 0.00 35 1014.3
20260502204558 16 314 8.0 19.3 0.00 0.00 0.00 34 1014.4
20260502204053 16 232 4.8 12.9 0.00 0.00 0.00 33 1014.5
20260502203553 16 301 4.8 16.1 0.00 0.00 0.00 35 1014.6
20260502203101 17 239 6.4 16.1 0.00 0.00 0.00 36 1014.7
20260502202553 16 280 4.8 12.9 0.00 0.00 0.00 36 1014.8
20260502202055 16 274 8.0 12.9 0.00 0.00 0.00 35 1014.9
20260502201601 16 248 6.4 17.7 0.00 0.00 0.00 34 1015.0
20260502201052 16 220 6.4 17.7 0.00 0.00 0.00 37 1015.0
20260502200554 16 243 4.8 12.9 0.00 0.00 0.00 39 1015.1
20260502200055 16 243 6.4 12.9 0.00 0.00 0.00 34 1015.1
20260502195554 16 257 6.4 14.5 0.00 0.00 0.00 36 1015.3
20260502195053 16 237 4.8 14.5 0.00 0.00 0.00 35 1015.4
20260502194604 16 271 6.4 14.5 0.00 0.00 0.00 35 1015.5
20260502194053 15 160 4.8 14.5 0.00 0.00 0.00 38 1015.6
20260502193553 15 213 6.4 14.5 0.00 0.00 0.00 34 1015.8
20260502193056 15 284 6.4 12.9 0.00 0.00 0.00 36 1015.8
20260502192556 15 263 4.8 12.9 0.00 0.00 0.00 35 1015.9
20260502192055 15 260 4.8 12.9 0.00 0.00 0.00 39 1015.9
20260502191607 15 281 3.2 14.5 0.00 0.00 0.00 37 1015.9
20260502191056 15 308 6.4 14.5 0.00 0.00 0.00 36 1016.1
20260502190556 15 247 4.8 14.5 0.00 0.00 0.00 34 1016.1
20260502190058 15 218 4.8 11.3 0.00 0.00 0.00 36 1016.1
20260502185555 15 316 6.4 16.1 0.00 0.00 0.00 33 1016.3
20260502185052 15 306 4.8 16.1 0.00 0.00 0.00 35 1016.3
20260502184601 15 302 6.4 12.9 0.00 0.00 0.00 35 1016.4
20260502184052 15 305 6.4 19.3 0.00 0.00 0.00 35 1016.4
20260502183552 15 217 6.4 19.3 0.00 0.00 0.00 33 1016.6
20260502183056 15 127 6.4 16.1 0.00 0.00 0.00 35 1016.6
20260502182554 15 259 4.8 16.1 0.00 0.00 0.00 35 1016.9
20260502182052 14 269 6.4 14.5 0.00 0.00 0.00 37 1017.0
20260502181555 14 207 8.0 14.5 0.00 0.00 0.00 38 1017.0
20260502181057 14 252 6.4 14.5 0.00 0.00 0.00 37 1017.0
20260502180554 14 234 4.8 19.3 0.00 0.00 0.00 36 1017.1
20260502164053 13 307 4.8 17.7 0.00 0.00 0.00 39 1018.1
20260502163553 12 235 4.8 12.9 0.00 0.00 0.00 38 1018.1
20260502163054 12 257 6.4 12.9 0.00 0.00 0.00 38 1018.4
20260502162553 12 307 6.4 16.1 0.00 0.00 0.00 41 1018.3
20260502162053 12 250 11.3 17.7 0.00 0.00 0.00 39 1018.5
20260502161556 12 123 6.4 17.7 0.00 0.00 0.00 42 1018.5
20260502161055 12 288 9.7 17.7 0.00 0.00 0.00 38 1018.6
20260502160555 12 243 8.0 19.3 0.00 0.00 0.00 40 1018.6
20260502152055 11 288 1.6 12.9 0.00 0.00 0.00 47 1018.8
20260502151631 11 285 4.8 14.5 0.00 0.00 0.00 42 1018.9
20260502151052 11 287 6.4 14.5 0.00 0.00 0.00 46 1019.0
20260502150554 11 294 3.2 12.9 0.00 0.00 0.00 45 1019.0
20260502150103 11 306 6.4 12.9 0.00 0.00 0.00 45 1019.0
20260502130553 6 224 4.8 12.9 0.00 0.00 0.00 62 1019.2
20260502123556 5 260 4.8 11.3 0.00 0.00 0.00 68 1019.2
20260502123104 4 266 4.8 8.0 0.00 0.00 0.00 67 1019.1
20260502122552 4 256 3.2 6.4 0.00 0.00 0.00 68 1019.1
20260502122052 3 254 3.2 4.8 0.00 0.00 0.00 69 1019.1
20260502121555 3 243 3.2 6.4 0.00 0.00 0.00 69 1019.1
20260502121051 3 250 3.2 6.4 0.00 0.00 0.00 69 1019.1
20260502120551 3 260 3.2 6.4 0.00 0.00 0.00 69 1019.1
20260502115554 2 251 3.2 6.4 0.00 0.00 0.00 71 1019.0
20260502115053 2 252 3.2 6.4 0.00 0.00 0.00 72 1018.9
20260502114600 2 259 3.2 6.4 0.00 0.00 0.00 74 1018.8
20260502114053 1 250 3.2 6.4 0.00 0.00 0.00 75 1018.7
20260502113554 1 255 3.2 6.4 0.00 0.00 0.00 75 1018.7
20260502113059 1 250 3.2 4.8 0.00 0.00 0.00 75 1018.7
20260502112552 1 250 3.2 4.8 0.00 0.00 0.00 76 1018.7
20260502112052 0 243 3.2 4.8 0.00 0.00 0.00 77 1018.8
20260502111600 0 256 3.2 4.8 0.00 0.00 0.00 75 1018.7
20260502111055 0 259 3.2 4.8 0.00 0.00 0.00 77 1018.8
20260502110552 0 243 3.2 4.8 0.00 0.00 0.00 76 1018.8
20260502110059 0 258 3.2 4.8 0.00 0.00 0.00 75 1018.8
20260502105552 0 252 3.2 4.8 0.00 0.00 0.00 76 1018.8
20260502105055 0 248 3.2 4.8 0.00 0.00 0.00 76 1018.6
20260502104601 0 243 3.2 4.8 0.00 0.00 0.00 76 1018.7
20260502104056 0 242 3.2 4.8 0.00 0.00 0.00 76 1018.7
20260502103552 0 243 3.2 4.8 0.00 0.00 0.00 77 1018.7
20260502103106 0 247 3.2 4.8 0.00 0.00 0.00 77 1018.7
20260502102555 0 255 3.2 4.8 0.00 0.00 0.00 76 1018.6
20260502102055 0 252 3.2 4.8 0.00 0.00 0.00 75 1018.6
20260502101611 0 265 1.6 3.2 0.00 0.00 0.00 76 1018.7
20260502101052 0 257 1.6 3.2 0.00 0.00 0.00 78 1018.7
20260502100552 0 169 0.0 1.6 0.00 0.00 0.00 79 1018.8
20260502100130 0 0 0.0 1.6 0.00 0.00 0.00 78 1018.8
20260502091051 0 0 0.0 1.6 0.00 0.00 0.00 75 1018.9
20260502090557 0 0 0.0 3.2 0.00 0.00 0.00 74 1018.8
20260502090112 0 240 0.0 3.2 0.00 0.00 0.00 73 1018.8
20260502080109 0 191 0.0 1.6 0.00 0.00 0.00 75 1018.7
20260502071051 0 193 0.0 1.6 0.00 0.00 0.00 74 1018.9
20260502070551 0 196 0.0 1.6 0.00 0.00 0.00 74 1018.9
20260502070058 0 203 0.0 1.6 0.00 0.00 0.00 74 1018.9
20260502065555 0 199 0.0 1.6 0.00 0.00 0.00 74 1019.0
20260502065055 0 0 0.0 1.6 0.00 0.00 0.00 74 1019.1
20260502064606 0 0 0.0 1.6 0.00 0.00 0.00 74 1019.2
20260502064052 0 163 0.0 1.6 0.00 0.00 0.00 74 1019.2
20260502063552 0 195 0.0 1.6 0.00 0.00 0.00 74 1019.2
20260502063106 0 206 0.0 1.6 0.00 0.00 0.00 73 1019.3
20260502062555 0 207 0.0 1.6 0.00 0.00 0.00 73 1019.3
20260502062052 0 212 0.0 1.6 0.00 0.00 0.00 73 1019.2
20260502061611 0 193 0.0 1.6 0.00 0.00 0.00 73 1019.2
20260502061052 0 205 0.0 1.6 0.00 0.00 0.00 73 1019.2
20260502060552 0 153 0.0 1.6 0.00 0.00 0.00 73 1019.3
20260502060058 0 210 0.0 1.6 0.00 0.00 0.00 73 1019.3
20260502055555 0 195 0.0 1.6 0.00 0.00 0.00 72 1019.1
20260502055052 0 0 0.0 1.6 0.00 0.00 0.00 72 1019.2
20260502054556 0 0 0.0 3.2 0.00 0.00 0.00 72 1019.1
20260502054056 0 0 0.0 3.2 0.00 0.00 0.00 71 1019.2
20260502053551 0 0 0.0 3.2 0.00 0.00 0.00 71 1019.1
20260502053104 0 0 0.0 1.6 0.00 0.00 0.00 71 1019.1
20260502052554 0 197 0.0 1.6 0.00 0.00 0.00 71 1019.0
20260502052052 0 0 0.0 1.6 0.00 0.00 0.00 71 1019.1
20260502051556 0 0 0.0 1.6 0.00 0.00 0.00 72 1019.0
20260502051057 0 224 0.0 1.6 0.00 0.00 0.00 72 1019.1
20260502050553 0 224 0.0 1.6 0.00 0.00 0.00 71 1019.0
20260502050058 1 0 0.0 1.6 0.00 0.00 0.00 70 1018.9
20260502045555 1 0 0.0 0.0 0.00 0.00 0.00 70 1018.9
20260502045053 1 0 0.0 0.0 0.00 0.00 0.00 69 1018.9
20260502044556 1 0 0.0 0.0 0.00 0.00 0.00 69 1019.0
20260502044053 1 0 0.0 0.0 0.00 0.00 0.00 69 1019.0
20260502043554 1 0 0.0 1.6 0.00 0.00 0.00 68 1019.0
20260502043103 1 0 0.0 1.6 0.00 0.00 0.00 68 1018.9
20260502042554 1 224 0.0 1.6 0.00 0.00 0.00 69 1019.0
20260502042056 1 230 0.0 1.6 0.00 0.00 0.00 68 1019.0
20260502041613 1 213 0.0 1.6 0.00 0.00 0.00 67 1019.1
20260502041054 1 0 0.0 1.6 0.00 0.00 0.00 67 1019.1
20260502040553 1 0 0.0 0.0 0.00 0.00 0.00 67 1019.0
20260502040100 1 0 0.0 0.0 0.00 0.00 0.00 67 1019.1
20260502035553 1 0 0.0 1.6 0.00 0.00 0.00 69 1019.1
20260502035053 2 0 0.0 1.6 0.00 0.00 0.00 69 1019.1
20260502034554 2 244 0.0 1.6 0.00 0.00 0.00 67 1019.1
20260502034054 2 0 0.0 3.2 0.00 0.00 0.00 66 1019.0
20260502033554 2 0 0.0 3.2 0.00 0.00 0.00 65 1019.1
20260502033054 2 0 0.0 1.6 0.00 0.00 0.00 64 1019.1
20260502032553 2 0 0.0 1.6 0.00 0.00 0.00 69 1019.1
20260502032053 2 232 0.0 1.6 0.00 0.00 0.00 67 1019.1
20260502031602 2 219 0.0 0.0 0.00 0.00 0.00 69 1019.1
20260502031054 3 0 0.0 0.0 0.00 0.00 0.00 65 1019.2
20260502030553 3 0 0.0 0.0 0.00 0.00 0.00 58 1019.2
20260502025553 3 0 0.0 0.0 0.00 0.00 0.00 56 1019.2
20260502025053 4 0 0.0 0.0 0.00 0.00 0.00 56 1019.2
20260502024604 4 0 0.0 0.0 0.00 0.00 0.00 57 1019.1
20260502024054 4 0 0.0 1.6 0.00 0.00 0.00 58 1019.0
20260502023557 3 0 0.0 1.6 0.00 0.00 0.00 58 1019.2
20260502023100 3 0 0.0 1.6 0.00 0.00 0.00 59 1019.1
20260502022553 4 219 0.0 1.6 0.00 0.00 0.00 60 1019.1
20260502022054 4 0 0.0 1.6 0.00 0.00 0.00 64 1019.0
20260502021605 5 0 0.0 0.0 0.00 0.00 0.00 58 1019.1
20260502021054 5 0 0.0 0.0 0.00 0.00 0.00 63 1019.2
20260502020553 5 0 0.0 0.0 0.00 0.00 0.00 53 1019.0
20260502020056 5 0 0.0 0.0 0.00 0.00 0.00 52 1018.9
20260502015554 5 0 0.0 0.0 0.00 0.00 0.00 53 1018.9
20260502015054 6 0 0.0 0.0 0.00 0.00 0.00 52 1018.8
20260502014557 6 0 0.0 0.0 0.00 0.00 0.00 52 1018.8
20260502014053 6 0 0.0 0.0 0.00 0.00 0.00 53 1018.7
20260502013555 6 0 0.0 0.0 0.00 0.00 0.00 54 1018.8
20260502013054 6 0 0.0 0.0 0.00 0.00 0.00 52 1018.7
20260502012557 7 0 0.0 0.0 0.00 0.00 0.00 48 1018.8
20260502012053 7 0 0.0 0.0 0.00 0.00 0.00 50 1018.7
20260502011555 6 0 0.0 0.0 0.00 0.00 0.00 51 1018.6
20260502011053 6 0 0.0 0.0 0.00 0.00 0.00 48 1018.6
20260502010553 7 0 0.0 0.0 0.00 0.00 0.00 47 1018.5
20260502010108 7 0 0.0 0.0 0.00 0.00 0.00 47 1018.5
20260502005556 7 0 0.0 0.0 0.00 0.00 0.00 46 1018.5
20260502005057 7 0 0.0 1.6 0.00 0.00 0.00 45 1018.5
20260502004602 8 0 0.0 3.2 0.00 0.00 0.00 46 1018.5
20260502004054 8 0 0.0 3.2 0.00 0.00 0.00 44 1018.4
20260502003554 8 357 1.6 6.4 0.00 0.00 0.00 43 1018.4
20260502003104 8 0 0.0 6.4 0.00 0.00 0.00 41 1018.4
20260502002553 8 6 1.6 4.8 0.00 0.00 0.00 42 1018.4
20260502002053 8 0 0.0 4.8 0.00 0.00 0.00 44 1018.4
20260502001556 9 276 1.6 6.4 0.00 0.00 0.00 43 1018.3
20260502001054 9 264 1.6 6.4 0.00 0.00 0.00 40 1018.3
20260502000553 9 0 1.6 8.0 0.00 0.00 0.00 38 1018.3
20260502000055 10 279 1.6 8.0 0.00 0.00 0.00 37 1018.3
20260501235556 10 21 3.2 6.4 0.00 0.00 0.00 39 1018.3
20260501235053 10 327 1.6 8.0 0.00 0.00 0.00 38 1018.3
20260501234600 9 8 1.6 11.3 0.00 0.00 0.00 38 1018.1
20260501234053 9 349 4.8 11.3 0.00 0.00 0.00 37 1018.3
20260501233553 10 349 6.4 11.3 0.00 0.00 0.00 36 1018.2
20260501233058 10 328 3.2 9.7 0.00 0.00 0.00 40 1018.2
20260501232552 10 322 3.2 14.5 0.00 0.00 0.00 38 1018.1
20260501232056 10 330 9.7 14.5 0.00 0.00 0.00 39 1018.1
20260501231601 10 356 4.8 16.1 0.00 0.00 0.00 37 1018.1
20260501231054 10 26 4.8 16.1 0.00 0.00 0.00 37 1018.1
20260501230553 10 345 8.0 16.1 0.00 0.00 0.00 36 1018.2
20260501230100 10 360 3.2 9.7 0.00 0.00 0.00 38 1018.0
20260501225556 10 28 3.2 9.7 0.00 0.00 0.00 37 1018.1
20260501225055 9 20 4.8 11.3 0.00 0.00 0.00 37 1018.1
20260501224554 9 25 4.8 12.9 0.00 0.00 0.00 38 1018.1